EDT,Max TemperatureF,Mean TemperatureF,Min TemperatureF,Max Dew PointF,MeanDew PointF,Min DewpointF,Max Humidity, Mean Humidity, Min Humidity, Max Sea Level PressureIn, Mean Sea Level PressureIn, Min Sea Level PressureIn, Max VisibilityMiles, Mean VisibilityMiles, Min VisibilityMiles, Max Wind SpeedMPH, Mean Wind SpeedMPH, Max Gust SpeedMPH,PrecipitationIn, CloudCover, Events, WindDirDegrees
2013-5-1,64,60,57,55,53,50,82,77,65,30.37,30.30,30.19,10,8,1,14,10,23,0.04,8,Rain,47
2013-5-2,68,60,51,52,50,45,81,68,56,30.40,30.36,30.31,10,10,10,14,9,24,0.00,4,,55
2013-5-3,64,57,50,52,47,41,83,70,45,30.34,30.29,30.26,10,10,8,21,9,29,0.00,3,,57
2013-5-4,64,58,52,50,47,42,77,68,48,30.26,30.21,30.17,10,9,2,20,11,26,0.00,6,Rain,54
2013-5-5,63,58,52,50,48,44,77,71,59,30.17,30.14,30.12,10,10,10,16,10,23,0.00,8,,56
2013-5-6,73,65,57,60,57,51,82,75,61,30.11,30.05,29.98,10,9,2,17,11,25,0.06,7,Rain,77
2013-5-7,75,68,60,61,58,51,84,76,53,29.97,29.92,29.86,10,10,6,15,10,23,0.06,7,Rain,108
2013-5-8,73,62,51,59,52,46,88,77,49,30.01,29.96,29.94,10,5,0,8,2,,0.29,4,Fog-Rain,155
2013-5-9,81,69,57,58,55,52,84,69,40,30.04,29.99,29.95,10,9,3,13,6,17,0.00,3,,260
2013-5-10,88,74,60,60,57,55,83,54,35,30.04,30.00,29.93,10,10,10,13,5,18,0.00,1,,215
2013-5-11,87,78,71,63,60,58,70,55,43,29.94,29.84,29.76,10,10,10,16,12,24,0.00,3,Rain,215
2013-5-12,75,65,55,61,54,37,81,64,43,30.03,29.85,29.75,10,10,7,12,6,17,0.04,6,Rain,13
2013-5-13,69,58,48,41,33,29,68,41,25,30.16,30.08,30.03,10,10,10,17,6,23,0.00,4,,334
2013-5-14,70,56,42,43,33,25,76,42,24,30.24,30.16,30.10,10,10,10,15,5,21,0.00,1,,245
2013-5-15,89,75,62,60,52,41,53,45,38,30.09,29.93,29.81,10,10,10,21,12,28,0.00,1,,220
2013-5-16,91,81,71,59,57,54,66,47,30,29.94,29.86,29.82,10,10,10,20,10,29,0.00,0,,261
2013-5-17,82,73,64,62,53,43,79,53,25,30.15,30.07,29.94,10,10,10,13,3,,0.00,1,,93
2013-5-18,75,69,63,63,60,49,88,77,54,30.20,30.17,30.14,10,8,2,12,7,20,0.69,7,Rain,87
2013-5-19,80,72,66,67,65,61,84,75,62,30.19,30.15,30.10,10,8,3,13,3,23,0.18,7,Rain,184
2013-5-20,81,76,71,68,66,64,81,73,61,30.14,30.09,30.04,10,10,10,15,8,37,0.00,5,Rain,202
2013-5-21,84,76,71,69,66,64,81,71,58,30.05,30.00,29.94,10,10,10,15,9,17,0.00,5,,215
2013-5-22,88,80,73,67,65,63,79,66,49,30.01,29.97,29.92,10,10,10,21,14,33,0.00,4,,216
2013-5-23,82,75,69,70,66,62,81,74,62,29.98,29.91,29.80,10,9,1,17,11,26,0.92,6,Rain,192
2013-5-24,73,64,55,66,54,34,84,71,45,30.13,29.90,29.76,10,9,2,24,9,33,0.19,6,Rain,315
2013-5-25,71,59,48,43,35,31,69,44,28,30.20,30.15,30.11,10,10,10,17,12,29,0.00,0,,306
2013-5-26,75,62,48,45,39,34,74,48,22,30.25,30.20,30.16,10,10,10,14,4,21,0.00,0,,296
2013-5-27,80,63,48,56,48,45,86,59,32,30.28,30.23,30.18,10,9,2,9,2,16,0.00,1,,219
2013-5-28,87,76,66,62,58,53,66,54,41,30.25,30.19,30.13,10,10,10,16,11,25,0.00,2,,205
2013-5-29,90,80,70,65,62,61,73,56,40,30.20,30.17,30.14,10,10,10,16,11,25,0.00,0,,220
2013-5-30,90,80,71,66,63,61,73,58,43,30.25,30.20,30.17,10,10,10,15,10,18,0.00,0,,219
2013-5-31,91,82,73,68,65,61,79,59,36,30.22,30.16,30.09,10,10,10,14,11,18,0.00,0,,216